Regional Weather Roundup
Issued by NWS State College, PA

Home | Current Version | Previous Version | Graphics & Text | Print | Product List | Glossary Off
Versions: 1 2 3 4 5 6 7 8 9 10 11 12 13 14 15 16 17 18 19 20 21 22 23 24 25 26 27 28 29 30 31 32 33 34 35 36 37 38 39 40 41 42 43 44 45 46 47 48 49 50

869
ASUS41 KCTP 091403
RWRCTP

REGIONAL WEATHER ROUNDUP
NATIONAL WEATHER SERVICE STATE COLLEGE PA
900 AM EST TUE FEB 09 2016

Note: "fair" indicates few or no clouds below 12,000 feet with no
significant weather and/or obstructions to visibility.

* = STATION THAT DOES NOT REPORT PRECIPITATION /E.G. RAIN...SNOW...ETC/
    THUNDER OR FOG.

PAZ002>004-007>009-013>016-020>023-029>032-091500-
WESTERN PENNSYLVANIA

CITY           SKY/WX    TMP DP  RH WIND       PRES   REMARKS
ERIE           CLOUDY    34  28  79 SW10      29.55R
MEADVILLE      CLOUDY    31  26  82 W6        29.53R
FRANKLIN*      CLOUDY    30  27  86 W8        29.54S
NEW CASTLE     CLOUDY    32  28  85 W9        29.57R
BEAVER COUNTY  PTSUNNY   32  28  86 W6        29.56R
BUTLER*        CLOUDY    30  28  93 W3        29.58R
PITTSBURGH INT SNOW      30  28  92 W7        29.55R VSB 1/2
PITTSBURGH     LGT SNOW  33  30  88 W5        29.54R FOG
INDIANA*       FOG       32  32 100 SW3       29.56S VSB 3/4
LATROBE        LGT SNOW  32  32 100 SW6       29.56R VSB 1
WASHINGTON CO* CLOUDY    30  27  86 W6        29.57R VSB 1
$$

PAZ004>006-010>012-017>019-024>028-033>037-041-042-045-046-049>053-091500-
CENTRAL PENNSYLVANIA

CITY           SKY/WX    TMP DP  RH WIND       PRES   REMARKS
BRADFORD       LGT SNOW  30  27  88 SW3       29.48R FOG
DUBOIS         LGT SNOW  30  28  92 W5        29.50S FOG
CLEARFIELD     LGT SNOW  32  29  88 CALM      29.52S FOG
JOHNSTOWN      LGT SNOW  29  25  85 NW6       29.48R FOG
ALTOONA        LGT SNOW  32  30  92 CALM      29.53R VSB 1
STATE COLLEGE  LGT SNOW  30  30 100 CALM      29.54R FOG
WILLIAMSPORT   LGT SNOW  31  26  82 NE8       29.59S
SELINSGROVE    LGT SNOW  31  29  92 CALM      29.61R VSB 3/4
FT INDIANTOWN  LGT SNOW  28  28 100 NE6       29.61S FOG
CAPITAL CITY   SNOW      32  28  85 E8        29.61S VSB 1/2
HARRISBURG     SNOW      31  28  89 E8        29.61R VSB 1/2
YORK           HVY SNOW  31  30  96 E6        29.59R VSB 1/4
$$

PAZ038>040-043-044-047-048-054-055-060>062-067>071-091500-
EASTERN PENNSYLVANIA

CITY           SKY/WX    TMP DP  RH WIND       PRES   REMARKS
SCRANTON       LGT SNOW  28  23  81 E6        29.59R
MOUNT POCONO   LGT SNOW  22  19  89 E9        29.54F VSB 3/4 WCI  12
ALLENTOWN      LGT SNOW  29  25  85 E7        29.64F FOG
QUAKERTOWN*    CLOUDY    28  27  93 NE3       29.63S
READING        LGT SNOW  30  26  85 E7        29.62S VSB 1
LANCASTER      LGT SNOW  30  28  92 E9        29.60F FOG
COATESVILLE    LGT SNOW  30  30 100 E9G17     29.61S
POTTSTOWN      LGT SNOW  28  27  96 NE6       29.64S FOG
BLUE BELL        N/A     30  28  93 E7        29.62F
DOYLESTOWN     LGT SNOW  27  25  92 NE6       29.62F FOG
WILLOW GROVE   NOT AVBL
NORTH PHILA    LGT SNOW  32  27  81 NE9       29.65S
PHILADELPHIA   LGT SNOW  33  28  81 NE9       29.64S
$$




USA.gov is the U.S. government's official web portal to all federal, state and local government web resources and services.